Temperature
13 11 11 12 13 13 14 14 13 14 14 13 12 12 13 13 13 13 13 13 12 11 11 10 10 10 10 9 9 9 9 9 9 9 9 8 8 8 8 8 8 8 9 9
12 11 12 13 13 13 13 13 13 13 13 13 12 12 13 13 13 13 13 12 12 11 11 10 10 9 9 9 9 9 9 9 8 8 8 8 8 8 8 8 8 8 8 8
11 12 13 13 12 12 12 12 12 12 12 12 11 11 12 13 13 13 12 12 12 11 10 10 9 9 9 9 8 8 8 8 8 8 8 8 7 7 7 7 8 8 8 8
11 12 12 12 12 12 11 12 12 11 10 10 11 9 12 12 12 12 12 12 11 11 10 9 9 8 8 8 8 8 8 8 8 7 7 7 7 7 7 7 7 7 7 7
11 12 11 11 11 12 11 12 12 11 10 10 10 9 10 12 11 11 11 11 11 10 10 9 8 8 8 8 8 8 8 8 7 7 7 7 7 7 7 7 7 7 7 7
11 11 11 11 11 11 11 11 10 10 9 8 10 9 10 11 12 11 11 11 10 10 9 9 8 8 7 7 7 7 7 7 7 7 7 6 6 6 6 6 6 7 7 7
10 10 10 10 10 10 10 9 8 8 8 8 11 10 10 12 12 11 10 10 10 9 9 8 8 7 7 7 7 7 7 7 7 6 6 6 6 6 6 6 6 6 6 7
9 8 9 9 9 9 9 9 8 8 8 9 10 9 10 11 11 11 10 10 9 9 8 8 7 7 7 7 6 6 6 6 6 6 6 6 6 6 6 6 6 6 6 6
8 9 10 10 10 9 9 8 10 9 9 8 9 11 10 10 9 9 9 9 8 8 8 7 7 7 6 6 6 6 6 6 6 6 6 6 5 5 5 5 5 6 6 6
8 7 8 9 9 9 9 9 8 7 8 8 9 10 9 8 8 8 8 8 8 7 7 6 6 6 6 6 5 5 5 5 5 5 5 5 5 5 5 5 5 5 5 6
8 7 7 7 7 7 8 8 8 8 8 8 8 9 9 8 8 8 7 8 7 7 6 6 5 5 5 5 5 5 5 5 5 5 5 5 5 5 5 5 5 5 5 5
7 6 5 7 8 8 8 8 8 7 7 7 7 7 9 8 8 8 7 7 7 6 6 5 5 5 4 4 4 4 4 4 4 4 4 4 4 4 4 4 4 4 4 4
6 5 5 6 6 6 6 7 7 7 6 6 6 7 8 7 7 7 7 6 6 6 5 5 4 4 4 4 4 4 4 4 4 4 4 4 4 4 4 4 4 4 4 4
6 5 5 5 5 5 5 6 6 6 5 5 6 6 6 6 6 6 6 6 5 5 5 4 4 3 3 3 3 3 3 3 3 3 3 4 4 4 4 4 4 4 4 4
5 4 5 5 6 6 5 6 6 5 5 5 6 6 6 6 6 6 5 5 5 4 4 3 3 3 3 3 3 3 3 3 3 3 3 3 3 3 3 3 3 3 3 3
4 3 4 4 5 5 5 5 6 6 6 6 6 5 6 5 5 5 4 4 4 4 3 3 2 2 2 2 2 2 2 2 2 2 3 3 3 3 3 3 3 3 3 3
3 3 2 3 4 4 4 4 5 5 5 5 5 4 5 4 4 4 4 4 4 3 3 2 2 2 2 1 2 2 2 2 2 2 2 2 2 2 2 2 2 2 2 2
2 2 2 2 3 2 4 5 5 4 4 3 3 3 3 3 3 3 3 3 3 2 2 1 1 1 1 1 1 1 1 1 1 1 1 1 1 2 2 2 1 1 1 1
2 2 2 2 2 3 3 4 3 3 2 3 3 3 3 3 3 2 2 2 2 1 1 1 1 1 1 1 1 1 1 1 1 1 1 1 1 1 1 1 1 1 1 1
2 2 1 1 2 2 2 2 3 3 2 1 2 2 1 1 1 1 1 1 1 1 0 0 0 0 0 0 0 0 0 0 0 0 0 0 0 0 0 0 0 0 0 0
0 1 0 1 1 1 1 2 2 2 1 1 1 1 0 -0 0 0 -0 -0 -0 -1 -1 -0 -0 -0 -0 -0 -1 -1 -1 -1 -0 -0 -0 -0 -0 -0 -0 -0 -0 -0 -0 -0
-0 -0 -0 0 0 0 0 1 -0 -0 0 0 -0 -0 -0 -1 -1 -1 -1 -1 -1 -1 -1 -1 -1 -1 -1 -1 -1 -1 -1 -1 -1 -1 -1 -1 -1 -1 -1 -1 -1 -1 -1 -1
0 -0 -0 -0 -0 -0 -1 -1 -1 -1 -1 -1 -1 -1 -1 -2 -2 -2 -2 -2 -2 -2 -2 -2 -2 -2 -2 -2 -2 -2 -2 -2 -2 -1 -1 -1 -1 -1 -1 -2 -2 -2 -2 -2
-1 0 -0 -1 -1 -1 -1 -1 -1 -1 -2 -2 -2 -2 -2 -3 -3 -3 -3 -3 -3 -3 -3 -3 -3 -3 -3 -3 -3 -2 -2 -2 -2 -2 -2 -2 -2 -2 -2 -2 -2 -2 -2 -2
-1 -1 -1 -1 -1 -1 -1 -2 -2 -2 -2 -3 -3 -3 -3 -3 -4 -4 -4 -4 -4 -4 -4 -4 -4 -4 -4 -3 -3 -3 -3 -3 -3 -3 -3 -3 -3 -3 -3 -3 -3 -3 -3 -3
-2 -3 -3 -3 -2 -2 -3 -3 -3 -3 -3 -3 -4 -4 -4 -4 -4 -4 -4 -4 -4 -4 -4 -4 -4 -4 -4 -4 -4 -4 -4 -4 -4 -4 -4 -4 -4 -4 -4 -4 -3 -3 -3 -3
Wind_Speed
4 4 6 7 8 7 7 8 8 5 2 4 9 11 9 7 6 6 5 4 3 2 2 3 3 3 2 2 3 3 3 3 3 2 2 2 2 1 0 1 2 3 3 3
3 8 8 5 5 8 9 9 8 5 2 4 8 12 10 9 9 7 6 4 3 2 2 3 3 3 2 2 2 2 3 2 2 2 2 1 2 1 1 1 1 2 2 3
8 4 3 6 7 8 9 8 7 5 4 6 7 10 9 6 6 6 5 4 3 3 2 3 3 2 2 1 2 2 2 2 3 3 2 2 1 1 1 1 1 0 1 2
7 6 5 6 7 7 8 5 6 5 4 5 5 6 6 6 6 6 6 4 3 3 3 4 3 3 2 1 2 2 2 2 2 3 3 3 3 2 2 2 1 1 1 2
5 3 4 7 6 6 4 3 5 6 6 7 7 6 7 5 6 7 6 5 4 3 3 4 4 3 3 3 3 2 2 1 2 3 3 2 2 1 1 2 2 2 1 2
8 4 3 3 2 3 2 3 5 5 4 6 8 7 6 4 6 6 5 4 4 4 3 4 4 4 4 4 3 2 2 1 2 2 2 2 2 1 1 2 2 2 1 1
5 5 3 1 1 2 3 2 1 2 4 6 5 5 5 1 4 6 6 5 4 3 4 4 4 4 3 3 2 2 1 1 1 2 1 1 2 2 2 2 2 2 2 1
4 5 6 4 3 3 6 5 4 4 4 3 3 6 2 5 7 7 7 5 5 3 3 4 4 4 3 3 2 2 2 1 1 2 1 1 2 1 1 1 2 2 2 2
4 4 0 2 2 2 4 5 4 4 5 4 6 4 2 4 5 5 4 4 4 3 4 4 4 4 3 3 2 2 1 1 0 1 1 1 2 2 1 1 1 1 1 2
4 5 3 2 2 4 4 3 2 3 4 5 6 6 3 5 4 3 2 2 3 4 4 4 4 4 3 3 3 3 2 2 1 1 1 1 1 2 1 2 1 1 1 2
5 4 3 2 6 6 4 4 4 4 4 3 4 2 2 4 4 3 2 2 3 4 4 4 4 3 3 3 3 2 2 2 2 1 1 1 1 1 1 1 1 2 1 2
2 2 5 7 5 3 4 5 4 4 5 4 4 3 3 5 4 3 2 3 3 3 4 4 4 3 3 3 3 3 2 2 2 2 1 1 1 0 1 1 1 1 1 1
3 2 3 3 2 1 2 4 4 4 3 5 5 4 2 4 4 4 3 3 3 4 5 4 4 3 4 3 3 3 3 2 2 2 2 1 1 0 0 0 1 1 1 1
3 4 6 7 5 3 5 6 5 4 4 6 7 7 4 3 2 3 3 3 3 4 4 4 3 3 4 3 3 3 3 3 3 2 2 2 1 1 1 0 0 0 1 1
3 6 8 11 10 7 8 8 8 9 8 8 8 7 7 4 2 1 2 2 3 3 4 4 3 3 3 4 4 3 3 3 3 2 2 2 1 1 1 1 1 1 1 0
3 5 6 9 9 8 9 8 9 10 10 10 9 7 4 3 3 2 2 2 2 3 3 3 3 3 3 3 3 3 3 3 2 2 2 2 2 1 1 1 1 1 1 1
4 4 4 7 6 6 8 5 6 5 4 4 6 5 4 4 3 2 1 1 1 2 2 3 2 2 3 3 3 3 3 2 2 2 2 2 2 1 1 1 1 0 0 1
7 7 4 5 4 7 3 2 0 2 0 2 3 4 4 4 4 2 3 3 3 3 2 2 2 2 2 3 3 3 3 2 2 2 2 2 2 2 1 1 1 1 0 1
7 7 4 3 5 5 1 3 2 2 2 3 4 5 6 6 3 3 6 6 4 3 3 2 2 2 2 2 3 3 2 2 2 2 3 2 2 2 2 1 2 1 1 1
3 4 4 4 4 3 2 5 6 1 1 6 6 5 5 5 3 2 6 6 5 5 4 4 3 3 3 3 3 3 3 3 3 3 3 2 2 2 2 2 2 2 1 2
2 3 6 6 5 2 4 6 4 1 3 6 6 5 4 2 2 3 5 5 5 5 5 5 4 3 3 3 3 3 3 3 3 3 3 3 2 2 2 2 2 2 1 1
2 2 3 3 3 3 5 4 3 2 4 5 5 5 4 3 4 4 5 5 5 5 5 5 4 4 4 4 3 3 3 4 3 3 3 3 3 3 3 2 2 2 1 1
1 1 1 1 1 2 4 3 3 4 4 5 5 5 4 4 4 4 5 5 5 5 5 5 4 4 4 5 4 4 4 4 3 3 3 3 3 3 3 2 2 2 1 1
2 3 1 1 0 2 3 4 5 6 5 5 5 5 5 4 4 4 4 4 4 4 5 5 5 5 5 5 5 4 5 4 3 3 3 3 3 3 3 2 2 2 2 2
3 3 3 2 2 2 3 5 5 5 5 6 6 5 5 4 4 3 3 4 4 4 4 4 5 5 5 5 6 6 6 5 4 3 4 4 3 3 3 3 3 2 2 2
2 2 2 3 3 3 4 4 5 5 5 5 5 5 5 4 3 4 3 3 4 4 5 5 5 5 5 6 6 7 6 5 4 4 4 4 3 3 3 3 3 5 4 4
Wind_Direction
195 220 222 221 223 260 283 276 273 273 237 237 252 261 255 232 222 226 226 217 201 189 151 119 113 113 112 114 127 144 147 157 151 150 156 147 146 141 94 75 114 130 142 148
217 234 241 251 252 257 267 271 270 280 230 259 269 270 258 232 218 217 218 205 176 144 126 115 105 98 107 135 147 147 158 155 152 145 145 152 153 146 143 66 88 135 146 148
230 243 241 246 250 253 256 258 267 278 300 260 275 281 245 221 211 200 193 183 165 152 140 128 122 109 94 114 156 157 152 152 143 132 132 139 147 143 133 144 162 162 156 148
249 246 251 252 247 245 258 264 273 272 272 257 220 280 252 206 205 199 191 174 162 141 137 139 131 119 121 114 108 109 119 135 149 150 154 166 172 176 184 170 164 168 160 159
250 237 237 241 246 248 268 310 284 265 257 271 244 248 273 188 206 205 182 167 151 134 138 138 132 132 114 96 92 99 100 116 128 145 155 164 189 188 166 163 162 175 192 178
257 261 245 253 278 248 277 307 278 255 242 254 230 218 270 212 203 178 166 153 137 129 124 120 115 108 98 93 93 97 120 132 132 143 156 178 191 179 176 167 171 182 186 197
257 229 203 207 224 203 226 212 256 232 216 237 208 211 243 154 105 121 130 127 119 118 112 107 105 98 104 109 112 127 124 129 139 141 164 195 186 184 197 185 184 185 187 205
252 250 187 192 215 218 221 219 208 226 234 262 238 229 221 88 78 81 91 105 109 100 99 107 112 111 108 114 116 119 135 139 141 142 156 191 174 183 198 198 195 196 199 204
267 259 141 210 247 239 222 232 271 283 281 267 243 220 124 88 82 85 88 93 108 99 85 91 97 104 105 107 102 101 105 114 141 144 151 185 179 180 190 188 202 201 200 212
297 274 253 241 242 238 252 273 231 214 235 246 249 240 219 158 143 118 98 82 92 92 86 82 74 73 88 95 86 68 63 60 50 185 183 180 184 189 193 183 197 206 205 209
289 261 254 243 218 220 210 225 230 233 240 245 265 269 29 114 121 121 114 95 96 103 100 88 75 67 68 75 84 77 57 49 23 2 170 143 150 186 186 178 184 198 206 198
279 270 255 252 262 275 226 221 217 226 245 239 257 266 48 78 84 86 92 91 88 92 101 93 81 66 65 57 54 58 50 49 25 12 37 125 131 141 175 175 192 209 194 187
308 260 275 275 263 307 274 257 265 272 266 246 243 251 64 55 53 47 57 81 85 88 90 85 74 60 59 50 42 39 38 43 32 28 29 41 60 52 218 193 206 206 175 158
287 249 237 247 274 270 276 271 262 249 244 255 247 259 281 324 22 31 32 50 71 77 84 77 62 52 46 41 29 25 26 29 21 25 33 22 1 344 338 347 34 114 154 149
272 256 265 276 280 271 263 256 245 241 242 247 266 271 285 310 358 37 54 62 69 75 72 70 54 41 33 31 23 15 17 18 13 15 12 358 352 2 2 5 19 36 38 56
275 266 281 275 268 264 266 260 248 245 248 256 269 278 314 8 27 38 52 51 64 79 65 59 47 36 26 19 12 5 2 2 2 0 356 357 0 9 4 2 28 39 27 7
260 266 271 265 273 279 256 245 240 242 245 254 264 285 339 357 355 359 0 15 77 70 55 47 41 25 11 2 359 350 341 351 3 353 352 356 358 6 359 343 2 11 325 334
247 260 255 267 276 242 240 49 73 218 275 7 356 357 352 333 328 12 20 24 46 42 44 39 25 12 6 2 357 352 349 355 357 351 348 356 5 350 334 330 323 307 286 257
233 235 246 250 256 257 295 357 339 239 244 15 344 347 351 353 10 39 24 24 27 28 34 31 21 20 14 4 3 358 352 352 355 353 351 355 350 337 321 305 291 292 277 275
240 231 239 246 250 254 341 341 329 291 221 6 357 349 353 10 359 340 6 15 24 25 27 23 19 26 24 10 9 2 354 351 347 347 347 346 340 334 315 301 297 295 277 258
243 234 234 246 249 261 342 339 358 95 311 347 354 354 359 348 317 341 8 19 28 25 19 15 19 24 18 10 4 356 354 347 348 355 353 351 349 342 328 309 306 292 284 285
235 247 241 249 251 267 5 31 51 337 349 358 355 357 4 356 6 19 18 18 23 22 15 13 18 18 13 8 6 2 351 347 353 357 356 353 351 347 342 332 324 318 301 291
227 254 267 227 223 17 38 41 10 357 358 4 2 360 11 13 14 18 19 21 20 20 12 9 16 17 13 12 15 7 347 349 352 359 359 358 357 356 354 352 343 330 329 311
337 335 305 293 27 22 24 16 16 13 14 13 16 11 18 15 20 22 21 19 17 17 15 10 14 18 14 12 10 0 353 351 354 1 358 356 1 357 359 357 353 343 332 313
309 323 300 281 319 346 19 12 4 5 11 18 20 17 19 21 20 23 17 15 15 13 13 16 18 18 12 9 9 4 360 359 2 3 357 356 359 357 358 1 358 346 342 312
328 313 294 285 327 326 326 347 357 1 3 9 12 8 14 17 18 20 18 17 20 15 15 16 16 12 6 6 6 3 360 2 4 3 0 355 354 353 352 349 353 5 354 351
Height
1488 1491 1490 1486 1485 1484 1483 1483 1483 1481 1480 1483 1483 1480 1477 1477 1477 1478 1479 1479 1480 1481 1481 1481 1482 1482 1483 1484 1485 1486 1486 1487 1488 1489 1490 1491 1492 1494 1496 1497 1498 1500 1501 1503
1488 1488 1483 1482 1482 1482 1483 1483 1482 1480 1479 1482 1480 1476 1472 1471 1472 1474 1475 1476 1477 1478 1478 1479 1479 1480 1481 1481 1482 1483 1484 1485 1486 1487 1488 1490 1491 1492 1494 1495 1496 1498 1499 1500
1485 1481 1480 1481 1482 1482 1482 1483 1482 1483 1481 1480 1481 1476 1468 1466 1467 1469 1471 1472 1474 1475 1476 1477 1477 1478 1478 1479 1480 1481 1482 1482 1483 1484 1486 1487 1489 1490 1492 1493 1494 1495 1497 1498
1481 1478 1479 1480 1480 1481 1483 1478 1479 1481 1486 1486 1481 1487 1465 1464 1465 1466 1467 1469 1471 1472 1473 1474 1475 1475 1476 1477 1478 1478 1479 1480 1481 1482 1483 1485 1486 1487 1488 1490 1491 1493 1494 1496
1478 1476 1478 1479 1478 1479 1479 1477 1478 1480 1483 1484 1479 1484 1470 1460 1463 1463 1464 1466 1468 1470 1471 1472 1472 1473 1474 1475 1476 1476 1477 1478 1479 1480 1481 1482 1484 1485 1487 1488 1489 1490 1491 1493
1477 1475 1476 1476 1477 1477 1478 1480 1479 1479 1483 1489 1475 1479 1470 1461 1457 1458 1461 1464 1466 1468 1469 1470 1471 1472 1473 1473 1474 1475 1475 1476 1477 1478 1479 1480 1482 1483 1484 1485 1486 1487 1488 1490
1476 1474 1475 1476 1478 1478 1480 1484 1489 1488 1488 1481 1466 1469 1466 1455 1453 1455 1459 1462 1465 1467 1468 1469 1469 1470 1471 1472 1472 1473 1474 1475 1475 1476 1477 1478 1479 1480 1481 1482 1483 1484 1485 1487
1480 1479 1473 1475 1476 1478 1479 1479 1486 1488 1482 1475 1466 1468 1461 1455 1455 1456 1459 1461 1464 1466 1467 1468 1469 1470 1470 1471 1471 1472 1472 1473 1474 1474 1475 1475 1476 1477 1479 1480 1481 1481 1483 1484
1480 1476 1471 1472 1473 1475 1476 1477 1473 1478 1475 1477 1468 1457 1459 1457 1457 1458 1460 1462 1463 1465 1466 1467 1468 1469 1470 1470 1471 1471 1471 1472 1472 1472 1473 1474 1474 1475 1476 1477 1478 1479 1480 1481
1478 1481 1474 1473 1474 1473 1474 1474 1478 1481 1480 1476 1463 1458 1461 1460 1459 1460 1462 1462 1463 1465 1466 1467 1468 1468 1469 1469 1470 1470 1470 1471 1471 1471 1471 1472 1473 1474 1474 1475 1475 1476 1477 1478
1479 1481 1478 1475 1473 1472 1474 1475 1473 1474 1473 1475 1472 1466 1456 1456 1457 1460 1461 1463 1464 1465 1466 1466 1467 1468 1468 1469 1469 1469 1469 1469 1470 1470 1470 1470 1471 1471 1472 1472 1473 1474 1474 1475
1479 1481 1480 1474 1468 1467 1468 1469 1472 1478 1475 1470 1472 1471 1457 1456 1457 1459 1461 1462 1464 1465 1466 1467 1467 1467 1467 1467 1467 1468 1468 1468 1468 1468 1468 1469 1469 1469 1470 1470 1471 1471 1472 1472
1481 1482 1484 1476 1474 1472 1471 1469 1470 1471 1473 1473 1473 1471 1460 1459 1459 1460 1461 1462 1463 1464 1465 1466 1467 1467 1466 1466 1466 1466 1466 1467 1466 1467 1467 1467 1467 1467 1467 1468 1468 1469 1469 1469
1480 1481 1481 1479 1473 1473 1474 1472 1471 1473 1477 1473 1467 1465 1463 1461 1461 1462 1462 1462 1463 1464 1464 1465 1466 1466 1466 1466 1466 1466 1465 1465 1465 1465 1465 1465 1465 1465 1465 1465 1465 1466 1466 1467
1479 1480 1475 1472 1468 1468 1468 1468 1468 1470 1469 1470 1464 1463 1461 1461 1461 1462 1462 1462 1463 1464 1464 1465 1465 1465 1465 1465 1465 1465 1464 1464 1463 1463 1463 1463 1463 1463 1463 1463 1463 1463 1464 1464
1479 1479 1476 1472 1466 1465 1465 1464 1463 1463 1463 1462 1460 1462 1460 1460 1460 1461 1462 1462 1462 1463 1464 1464 1464 1464 1464 1464 1463 1463 1463 1462 1462 1461 1461 1461 1461 1461 1461 1461 1461 1461 1461 1461
1480 1479 1479 1473 1466 1465 1465 1461 1460 1460 1460 1461 1462 1464 1461 1461 1461 1461 1461 1461 1461 1462 1463 1463 1463 1463 1463 1462 1462 1462 1461 1461 1460 1460 1459 1459 1458 1458 1458 1459 1458 1458 1458 1458
1480 1479 1479 1475 1471 1473 1462 1457 1458 1459 1461 1463 1463 1463 1462 1461 1461 1460 1460 1461 1461 1461 1462 1462 1462 1461 1461 1461 1460 1460 1459 1459 1458 1458 1457 1457 1456 1456 1456 1456 1456 1455 1455 1455
1474 1476 1477 1475 1471 1461 1460 1459 1460 1461 1463 1463 1463 1462 1461 1460 1459 1460 1460 1460 1461 1461 1461 1461 1460 1460 1459 1459 1458 1458 1457 1457 1456 1456 1455 1455 1454 1454 1453 1453 1453 1452 1452 1452
1471 1473 1476 1473 1469 1465 1466 1462 1459 1460 1463 1464 1463 1463 1462 1461 1462 1462 1461 1460 1460 1460 1459 1459 1458 1458 1457 1457 1456 1456 1455 1455 1454 1453 1453 1452 1452 1451 1451 1450 1450 1450 1449 1449
1474 1474 1475 1472 1469 1466 1468 1463 1460 1467 1470 1466 1464 1464 1463 1463 1464 1463 1461 1460 1459 1458 1458 1457 1457 1456 1456 1455 1455 1454 1453 1453 1452 1452 1451 1450 1449 1449 1448 1448 1447 1447 1447 1446
1474 1475 1474 1472 1473 1473 1468 1466 1469 1471 1468 1466 1464 1463 1463 1463 1462 1461 1460 1459 1458 1457 1457 1456 1455 1455 1454 1454 1453 1452 1451 1451 1450 1449 1448 1448 1447 1446 1446 1445 1444 1444 1444 1443
1473 1473 1472 1473 1474 1472 1470 1470 1470 1469 1467 1466 1464 1463 1462 1461 1461 1460 1459 1458 1458 1457 1456 1455 1454 1453 1453 1452 1452 1450 1450 1449 1448 1447 1446 1445 1444 1444 1443 1443 1442 1441 1441 1441
1472 1471 1471 1471 1471 1471 1471 1470 1470 1469 1467 1466 1464 1463 1462 1461 1460 1460 1459 1458 1458 1457 1456 1455 1454 1452 1452 1451 1450 1449 1448 1447 1446 1445 1444 1443 1442 1441 1441 1440 1440 1439 1439 1438
1475 1474 1473 1472 1472 1471 1470 1470 1469 1468 1467 1465 1464 1463 1462 1461 1460 1459 1458 1458 1457 1456 1455 1454 1453 1452 1451 1450 1449 1448 1447 1446 1445 1443 1443 1442 1441 1440 1439 1438 1438 1437 1437 1437
1476 1477 1476 1474 1473 1473 1471 1470 1469 1467 1466 1465 1463 1462 1461 1460 1459 1459 1458 1457 1457 1456 1455 1453 1452 1451 1450 1449 1448 1447 1446 1445 1443 1442 1441 1440 1439 1438 1437 1436 1436 1435 1435 1434